Return to main menu page
Advertisement


Lacrosse 3 - Orbit Data

View from orbit pole
View from above orbital plane

View from above satellite
View from above satellite

Ground track

Ground track

The orbit data is extracted from the following two-line orbital elements,

1 25017U 97064A   09321.42446708 0.00000040  00000-0  63781-5 0    08
2 25017  57.0077 154.1085 0006000 118.9233 241.0767 14.71601283    00

Epoch (UTC): 10:11:14 AM, Tuesday, November 17, 2009
Eccentricity: 0.0006000
Inclination: 57.0077°
Perigee Height: 652 km
Apogee Height: 660 km
Right Ascension of Ascending Node: 154.1085°
Argument of Perigee: 118.9233°
Revolutions per Day: 14.71601283
Mean Anomaly at Epoch: 241.0767°
Orbit Number at Epoch: 0

The dashed part of the orbit path shows where the satellite is in the earth's shadow, and the full part is where it is sunlit.


Developed and maintained by Chris Peat, Heavens-Above GmbH
Please read the updated FAQ before sending e-mail.
GSOC Home Page